User: anonymous   Login
Location: Unspecified
(0.0000°N, 0.0000°E)
Time: 20:55:19
(UTC+00:00)
Language:

SLDCOM 1 - Orbit

View from above orbital plane
View from above orbital plane
View from above satellite
View from above satellite

Ground track
Ground track

The orbit data is extracted from the following two-line orbital elements,

1 20641U 90050A   18055.25379859 0.00000000  00000-0  00000-0 0    07
2 20641  63.4353 358.4169 4056740 264.6797  49.0432  6.02573400    01
Epoch (UTC): 24 February 2018 06:05:28
Eccentricity: 0.4056740
inclination: 63.4353°
perigee height: 1203 km
apogee height: 11553 km
right ascension of ascending node: 358.4169°
argument of perigee: 264.6797°
revolutions per day: 6.02573400
mean anomaly at epoch: 49.0432°
orbit number at epoch: 0

The dashed part of the orbit path shows where the satellite is in the earth's shadow,  

DLR